{"data":{"norad_id":52600,"intl_designator":"2022-052C","name":"STARLINK-4026","alt_names":[],"object_type":"PAYLOAD","status":"ACTIVE","operator":null,"country":"US","launch_date":"2022-05-14","launch_site_code":"AFETR","launch_vehicle":null,"mission":null,"orbit_class":"UNKNOWN","rcs_meters":null,"size_class":null,"mass_kg":null,"dimensions":null,"purposes":["comms"],"wikipedia_slug":null,"has_3d_model":false,"image_url":null,"decayed_at":null,"tle_current":{"epoch":"2026-05-24T20:03:13.759488Z","epoch_age_seconds":96566,"freshness":"FRESH","line1":"1 52600U 22052C   26144.83557592  .00000636  00000+0  58048-4 0  9998","line2":"2 52600  53.2158 297.2856 0001422  92.0586 268.0569 15.08837506223159","mean_motion":15.08837506,"eccentricity":0.0001422,"inclination_deg":53.2158,"raan_deg":297.2856,"arg_perigee_deg":92.0586,"mean_anomaly_deg":268.0569,"bstar":5.8048e-5,"rev_number":22315,"period_min":95.437712429187,"perigee_km":538.76728845954,"apogee_km":540.73473581019,"semimajor_km":6917.8880121349,"source":"CELESTRAK","updated_at":"2026-05-25T13:38:17.196795Z"}}}